| time (UTC) | temp F | wind direction | speed MPH | gust MPH | rain 1hr in | rain 24hr in | rain mn in | humidity % | barometer mb |
| 20260906102022 | 73 | 108 | 0.0 | 7.0 | 0.00 | 0.00 | 0.00 | 100 | |
| 20260906100522 | 73 | 95 | 2.0 | 7.0 | 0.00 | 0.00 | 0.00 | 100 | |
| 20260906095022 | 73 | 262 | 2.0 | 5.0 | 0.00 | 0.00 | 0.00 | 100 | |
| 20260906093522 | 73 | 234 | 2.0 | 8.0 | 0.00 | 0.00 | 0.00 | 100 | |
| 20260906092023 | 72 | 223 | 1.0 | 7.0 | 0.00 | 0.00 | 0.00 | 100 | |
| 20260906090522 | 72 | 164 | 4.0 | 7.0 | 0.00 | 0.00 | 0.00 | 100 | |
| 20260906085022 | 72 | 279 | 3.0 | 4.0 | 0.00 | 0.00 | 0.00 | 100 | |
| 20260906083522 | 71 | 11 | 1.0 | 4.0 | 0.00 | 0.00 | 0.00 | 100 | |
| 20260906082022 | 71 | 147 | 3.0 | 5.0 | 0.00 | 0.00 | 0.00 | 100 | |
| 20260906080522 | 70 | 357 | 2.0 | 8.0 | 0.00 | 0.00 | 0.00 | 100 | |
| 20260906075022 | 70 | 344 | 3.0 | 5.0 | 0.00 | 0.00 | 0.00 | 100 | |
| 20260906073523 | 69 | 223 | 1.0 | 8.0 | 0.00 | 0.00 | 0.00 | 100 | |
| 20260906072023 | 68 | 53 | 9.0 | 17.0 | 0.00 | 0.00 | 0.00 | 100 | |
| 20260906070522 | 67 | 229 | 1.0 | 7.0 | 0.00 | 0.00 | 0.00 | 100 | |
| 20260906065022 | 67 | 156 | 10.0 | 10.0 | 0.00 | 0.00 | 0.00 | 100 | |
| 20260906063522 | 66 | 191 | 3.0 | 5.0 | 0.00 | 0.00 | 0.00 | 100 | |
| 20260906062022 | 64 | 352 | 0.0 | 2.0 | 0.00 | 0.00 | 0.00 | 100 | |
| 20260906060523 | 63 | 99 | 1.0 | 5.0 | 0.00 | 0.00 | 0.00 | 100 | |
| 20260906055023 | 63 | 220 | 0.0 | 3.0 | 0.00 | 0.00 | 0.00 | 100 | |
| 20260906053523 | 62 | 61 | 0.0 | 6.0 | 0.00 | 0.00 | 0.00 | 100 | |
| 20260906052023 | 62 | 337 | 1.0 | 7.0 | 0.00 | 0.00 | 0.00 | 100 | |
| 20260906050523 | 62 | 149 | 0.0 | 5.0 | 0.00 | 0.00 | 0.00 | 100 | |
| 20260906045023 | 62 | 180 | 0.0 | 3.0 | 0.00 | 0.00 | 0.00 | 100 | |
| 20260906043523 | 62 | 232 | 0.0 | 6.0 | 0.00 | 0.00 | 0.00 | 100 | |
| 20260906042023 | 61 | 265 | 0.0 | 3.0 | 0.00 | 0.00 | 0.00 | 100 | |
| 20260906040523 | 61 | 215 | 0.0 | 0.0 | 0.00 | 0.00 | 0.00 | 100 | |
| 20260906035023 | 61 | 22 | 0.0 | 3.0 | 0.00 | 0.00 | 0.00 | 100 | |
| 20260906033523 | 62 | 84 | 0.0 | 6.0 | 0.00 | 0.00 | 0.00 | 100 | |
| 20260906032023 | 62 | 184 | 2.0 | 7.0 | 0.00 | 0.00 | 0.00 | 100 | |
| 20260906030523 | 62 | 330 | 1.0 | 1.0 | 0.00 | 0.00 | 0.00 | 100 | |
| 20260906025105 | 62 | 156 | 1.0 | 7.0 | 0.00 | 0.00 | 0.00 | 100 | |
| 20260906025023 | 62 | 156 | 1.0 | 7.0 | 0.00 | 0.00 | 0.00 | 100 | |
| 20260906023523 | 63 | 123 | 5.0 | 8.0 | 0.00 | 0.00 | 0.00 | 100 | |
| 20260906022023 | 63 | 126 | 3.0 | 9.0 | 0.00 | 0.00 | 0.00 | 100 | |
| 20260906020523 | 63 | 142 | 3.0 | 7.0 | 0.00 | 0.00 | 0.00 | 100 | |
| 20260906015023 | 63 | 119 | 2.0 | 4.0 | 0.00 | 0.00 | 0.00 | 100 | |
| 20260906013523 | 63 | 165 | 3.0 | 7.0 | 0.00 | 0.00 | 0.00 | 100 | |
| 20260906012023 | 63 | 172 | 2.0 | 4.0 | 0.00 | 0.00 | 0.00 | 100 | |
| 20260906010523 | 63 | 115 | 0.0 | 3.0 | 0.00 | 0.00 | 0.00 | 100 | |
| 20260906005023 | 64 | 71 | 1.0 | 4.0 | 0.00 | 0.00 | 0.00 | 100 | |
| 20260906003523 | 64 | 175 | 0.0 | 4.0 | 0.00 | 0.00 | 0.00 | 100 | |
| 20260906002023 | 64 | 118 | 1.0 | 5.0 | 0.00 | 0.00 | 0.00 | 100 | |
| 20260906000524 | 64 | 125 | 1.0 | 4.0 | 0.00 | 0.00 | 0.00 | 100 | |
| 20260905235023 | 64 | 67 | 2.0 | 2.0 | 0.00 | 0.00 | 0.00 | 100 | |
| 20260905233523 | 64 | 109 | 1.0 | 5.0 | 0.00 | 0.00 | 0.00 | 100 | |
| 20260905232023 | 65 | 116 | 0.0 | 2.0 | 0.00 | 0.00 | 0.00 | 100 | |
| 20260905230523 | 65 | 57 | 0.0 | 0.0 | 0.00 | 0.00 | 0.00 | 100 | |
| 20260905225023 | 65 | 133 | 0.0 | 2.0 | 0.00 | 0.00 | 0.00 | 100 | |
| 20260905223523 | 66 | 80 | 0.0 | 0.0 | 0.00 | 0.00 | 0.00 | 100 | |
| 20260905222023 | 66 | 80 | 0.0 | 2.0 | 0.00 | 0.00 | 0.00 | 100 | |
| 20260905220523 | 66 | 61 | 1.0 | 4.0 | 0.00 | 0.00 | 0.00 | 100 | |
| 20260905215024 | 67 | 81 | 2.0 | 5.0 | 0.00 | 0.00 | 0.00 | 100 | |
| 20260905213524 | 67 | 45 | 0.0 | 0.0 | 0.00 | 0.00 | 0.00 | 100 | |
| 20260905212024 | 67 | 77 | 1.0 | 3.0 | 0.00 | 0.00 | 0.00 | 100 | |
| 20260905210524 | 68 | 111 | 0.0 | 0.0 | 0.00 | 0.00 | 0.00 | 100 | |
| 20260905205024 | 68 | 90 | 3.0 | 5.0 | 0.00 | 0.00 | 0.00 | 100 | |
| 20260905203524 | 67 | 80 | 0.0 | 1.0 | 0.00 | 0.00 | 0.00 | 100 | |
| 20260905202024 | 67 | 153 | 0.0 | 3.0 | 0.00 | 0.00 | 0.00 | 100 | |
| 20260905200524 | 67 | 118 | 0.0 | 2.0 | 0.00 | 0.00 | 0.00 | 100 | |
| 20260905195024 | 67 | 7 | 0.0 | 1.0 | 0.00 | 0.00 | 0.00 | 100 | |
| 20260905193524 | 67 | 90 | 0.0 | 0.0 | 0.00 | 0.00 | 0.00 | 100 | |
| 20260905192024 | 68 | 102 | 0.0 | 3.0 | 0.00 | 0.00 | 0.00 | 100 | |
| 20260905190524 | 68 | 60 | 3.0 | 4.0 | 0.00 | 0.00 | 0.00 | 100 | |
| 20260905185024 | 68 | 52 | 0.0 | 1.0 | 0.00 | 0.00 | 0.00 | 100 | |
| 20260905183524 | 67 | 68 | 0.0 | 2.0 | 0.00 | 0.00 | 0.00 | 100 | |
| 20260905182024 | 68 | 88 | 0.0 | 0.0 | 0.00 | 0.00 | 0.00 | 100 | |
| 20260905180524 | 68 | 88 | 0.0 | 0.0 | 0.00 | 0.00 | 0.00 | 100 | |
| 20260905175024 | 68 | 88 | 0.0 | 2.0 | 0.00 | 0.00 | 0.00 | 100 | |
| 20260905173648 | 68 | 84 | 2.0 | 2.0 | 0.00 | 0.00 | 0.00 | 100 | |
| 20260905173524 | 68 | 84 | 2.0 | 2.0 | 0.00 | 0.00 | 0.00 | 100 | |
| 20260905172024 | 68 | 77 | 1.0 | 3.0 | 0.00 | 0.00 | 0.00 | 100 | |
| 20260905170524 | 69 | 112 | 4.0 | 6.0 | 0.00 | 0.00 | 0.00 | 100 | |
| 20260905165024 | 70 | 75 | 7.0 | 9.0 | 0.00 | 0.00 | 0.00 | 100 | |
| 20260905163524 | 70 | 73 | 7.0 | 9.0 | 0.00 | 0.00 | 0.00 | 100 | |
| 20260905162024 | 70 | 57 | 3.0 | 7.0 | 0.00 | 0.00 | 0.00 | 100 | |
| 20260905160525 | 70 | 80 | 5.0 | 10.0 | 0.00 | 0.00 | 0.00 | 100 | |
| 20260905155024 | 71 | 74 | 5.0 | 11.0 | 0.00 | 0.00 | 0.00 | 100 | |
| 20260905153524 | 71 | 85 | 6.0 | 14.0 | 0.00 | 0.00 | 0.00 | 100 | |
| 20260905152024 | 71 | 84 | 6.0 | 10.0 | 0.00 | 0.00 | 0.00 | 100 | |
| 20260905150524 | 71 | 82 | 8.0 | 13.0 | 0.00 | 0.00 | 0.00 | 100 | |
| 20260905145024 | 71 | 61 | 7.0 | 13.0 | 0.00 | 0.00 | 0.00 | 100 | |
| 20260905143524 | 73 | 70 | 8.0 | 12.0 | 0.00 | 0.00 | 0.00 | 100 | |
| 20260905142024 | 72 | 39 | 5.0 | 13.0 | 0.00 | 0.00 | 0.00 | 100 | |
| 20260905140607 | 72 | 37 | 14.0 | 15.0 | 0.00 | 0.00 | 0.00 | 100 | |
| 20260905140524 | 72 | 37 | 14.0 | 15.0 | 0.00 | 0.00 | 0.00 | 100 | |
| 20260905135138 | 73 | 81 | 10.0 | 12.0 | 0.00 | 0.00 | 0.00 | 100 | |
| 20260905135024 | 73 | 81 | 10.0 | 12.0 | 0.00 | 0.00 | 0.00 | 100 | |
| 20260905133559 | 74 | 25 | 7.0 | 13.0 | 0.00 | 0.00 | 0.00 | 100 | |
| 20260905133524 | 74 | 25 | 7.0 | 13.0 | 0.00 | 0.00 | 0.00 | 100 | |
| 20260905132024 | 75 | 7 | 9.0 | 12.0 | 0.00 | 0.00 | 0.00 | 100 | |
| 20260905130524 | 75 | 80 | 5.0 | 14.0 | 0.00 | 0.00 | 0.00 | 100 | |
| 20260905125024 | 75 | 56 | 6.0 | 13.0 | 0.00 | 0.00 | 0.00 | 100 | |
| 20260905123524 | 76 | 60 | 6.0 | 12.0 | 0.00 | 0.00 | 0.00 | 100 | |
| 20260905122025 | 74 | 73 | 6.0 | 13.0 | 0.00 | 0.00 | 0.00 | 100 | |
| 20260905120525 | 73 | 71 | 8.0 | 15.0 | 0.00 | 0.00 | 0.00 | 100 | |
| 20260905115025 | 73 | 146 | 8.0 | 13.0 | 0.00 | 0.00 | 0.00 | 100 | |
| 20260905113525 | 71 | 73 | 8.0 | 15.0 | 0.00 | 0.00 | 0.00 | 100 | |
| 20260905112025 | 71 | 75 | 10.0 | 15.0 | 0.00 | 0.00 | 0.00 | 100 | |
| 20260905110525 | 72 | 68 | 11.0 | 15.0 | 0.00 | 0.00 | 0.00 | 100 | |
| 20260905105025 | 73 | 64 | 8.0 | 13.0 | 0.00 | 0.00 | 0.00 | 100 | |
| 20260905103525 | 75 | 12 | 8.0 | 13.0 | 0.00 | 0.00 | 0.00 | 100 |